Wind_Speed
72 70 70 68 70 72 73 73 74 77 76 77 77 77 82 83 84 86 87 88 86 82 79 73 73 73 69 66 65 66 66 68 69 72 73 73 74 73 74 75 77 79 81 84
71 70 72 72 76 76 77 77 79 80 82 81 81 82 84 87 86 88 89 86 85 83 77 74 70 69 68 64 63 63 64 68 69 68 71 71 70 70 69 71 73 75 76 79
75 72 75 77 78 80 80 82 85 86 85 84 84 84 85 86 88 89 91 88 82 76 71 64 61 60 62 61 59 58 60 61 66 69 68 69 68 67 68 68 69 70 72 73
78 78 81 82 82 84 83 86 86 86 89 86 88 88 87 85 86 87 85 80 75 69 63 59 56 56 57 60 60 58 58 59 60 66 67 65 65 66 66 67 68 70 72 74
80 83 84 85 89 89 88 89 90 91 89 83 88 90 87 87 84 79 76 72 68 62 58 56 55 55 56 57 58 58 58 58 59 59 63 65 65 66 65 65 67 70 73 74
86 87 89 90 90 91 91 92 92 90 85 85 87 87 84 81 76 73 69 64 61 58 57 55 55 54 54 55 55 56 56 56 57 57 57 59 60 59 60 62 63 64 65 69
92 91 93 94 96 95 94 93 90 90 86 87 86 83 82 76 70 68 65 63 60 60 56 54 52 50 49 48 49 50 51 50 50 51 52 52 52 52 52 53 54 55 57 60
97 96 96 96 96 96 96 91 93 90 86 86 84 80 74 69 65 64 63 59 59 54 51 48 46 42 41 40 42 44 45 46 45 44 45 46 46 45 46 46 47 50 54 54
102 100 100 99 97 94 89 91 91 88 86 82 78 73 67 64 61 60 58 56 52 48 44 39 35 33 32 31 33 34 35 37 38 39 39 37 36 37 38 41 44 45 46 47
102 100 94 93 90 90 88 86 85 85 81 77 71 66 65 60 58 55 54 50 45 38 35 32 29 26 25 24 26 27 27 28 28 29 28 29 31 34 39 39 37 41 39 31
95 96 92 89 85 82 82 82 81 79 74 71 65 62 58 55 52 48 45 43 33 28 24 21 16 15 16 17 17 19 20 21 23 23 28 30 33 36 34 34 39 36 29 28
94 89 83 81 80 78 76 74 74 72 69 69 65 61 53 51 47 41 34 29 22 16 16 19 14 15 15 16 18 20 22 23 25 29 31 34 33 30 32 34 31 25 25 27
80 78 75 73 70 70 69 70 71 69 67 66 61 55 49 47 41 32 28 22 16 14 14 14 17 19 19 18 18 21 24 27 29 29 31 31 29 33 34 29 26 28 22 22
73 70 68 68 67 65 67 68 66 65 65 59 56 49 41 42 34 30 29 25 18 24 22 19 19 20 21 22 23 24 26 26 26 27 29 29 32 33 29 25 27 23 21 21
66 63 66 66 63 61 64 63 63 62 61 54 52 47 37 38 32 30 30 30 22 26 25 21 22 23 24 25 24 22 23 24 25 27 29 33 35 32 27 24 23 20 17 20
68 64 64 60 57 55 58 62 61 62 58 54 48 43 33 36 33 31 33 34 27 28 29 24 24 25 24 25 24 24 25 27 28 31 35 35 34 30 27 25 22 18 17 19
64 61 62 60 57 54 54 60 60 62 58 53 47 40 34 36 34 32 36 39 36 32 28 26 26 26 26 25 25 27 29 32 32 34 38 35 32 30 27 27 24 22 21 21
65 65 63 59 58 50 54 59 59 56 53 51 46 42 37 35 37 34 37 42 41 39 29 32 32 28 28 28 27 27 31 36 37 39 37 37 35 32 30 28 26 26 26 26
67 66 65 61 60 56 51 54 53 53 51 49 46 44 39 36 38 37 38 44 46 46 39 32 36 33 29 28 31 28 30 35 37 41 42 40 37 36 34 33 32 31 30 31
67 68 68 65 63 55 53 55 54 52 53 51 48 46 42 40 38 39 39 45 49 50 46 42 38 35 32 33 32 31 31 31 41 44 44 44 42 39 39 37 36 36 36 36
64 65 63 63 60 53 56 55 54 54 52 51 48 47 44 43 42 41 43 44 50 52 53 48 44 42 37 38 38 34 32 32 38 45 48 48 46 45 45 43 42 41 40 41
62 62 59 60 59 57 59 57 56 55 53 52 51 48 46 45 44 43 44 45 49 55 56 55 53 50 44 43 43 41 36 35 36 40 46 51 50 49 49 49 47 46 46 45
70 67 66 65 64 62 63 62 60 58 56 53 54 50 46 46 44 45 44 44 48 53 56 58 60 57 53 50 48 46 44 42 40 40 41 44 50 53 53 53 53 51 49 49
73 71 70 69 68 68 66 65 61 59 57 56 54 52 49 47 46 45 46 45 47 53 58 61 63 62 59 55 54 54 51 48 47 46 44 44 45 48 53 56 57 56 55 53
74 74 73 70 71 68 67 66 63 61 59 57 54 53 52 50 50 49 47 47 48 51 58 64 64 65 65 64 62 61 60 57 54 53 51 47 47 48 50 50 53 58 60 58
72 70 70 70 69 67 66 64 63 60 60 58 55 54 54 53 53 52 51 50 50 52 55 62 67 69 69 68 67 67 66 63 63 60 60 59 56 53 52 53 54 54 56 57
Wind_Direction
277 275 279 279 283 287 289 290 292 292 294 291 291 292 290 291 290 290 291 293 293 291 291 285 281 277 273 269 265 263 259 257 257 257 257 258 259 258 258 258 259 258 259 260
275 274 275 277 283 285 287 289 289 291 292 291 292 292 292 291 293 292 292 293 294 291 288 285 280 275 272 268 264 262 260 255 254 255 255 256 257 256 257 258 259 259 259 260
272 273 274 277 279 282 284 287 290 293 293 294 292 292 292 292 294 295 294 293 292 290 287 282 277 273 273 271 266 262 261 260 255 252 252 253 256 257 257 258 259 260 261 262
270 270 273 275 278 281 284 287 290 290 292 293 291 293 293 293 294 295 294 292 291 290 286 282 277 273 270 268 266 263 260 257 257 253 251 254 256 258 259 259 261 263 264 265
269 270 273 275 277 280 285 287 290 292 295 292 292 293 294 294 296 296 294 294 294 290 288 282 277 272 268 264 261 261 259 258 256 256 254 254 257 259 260 263 266 267 267 269
268 271 273 276 279 280 284 287 289 292 291 291 294 294 295 297 297 297 295 294 293 291 289 286 283 278 271 266 261 257 257 256 255 255 255 257 259 262 263 265 267 269 272 272
268 270 272 276 278 280 284 287 287 291 290 293 293 294 295 297 298 297 297 295 296 295 293 287 281 276 272 265 261 256 253 253 252 253 254 257 261 264 266 267 271 274 277 278
267 270 273 277 278 279 282 284 288 289 290 290 291 294 294 295 296 299 297 296 297 295 288 281 279 276 271 265 258 255 252 251 251 252 255 256 260 262 265 270 274 277 281 284
267 273 274 275 278 280 283 285 286 286 288 289 293 294 295 296 297 297 297 297 296 291 285 280 279 276 270 262 255 253 251 247 248 251 254 256 257 260 266 272 278 281 281 282
267 271 273 275 277 280 282 283 284 285 287 289 293 297 298 298 296 295 296 297 294 289 279 278 276 264 258 257 253 251 247 245 246 246 250 253 259 268 274 275 272 271 273 275
266 269 272 274 278 279 281 279 281 283 285 289 293 296 298 296 295 294 296 297 295 288 274 270 255 251 245 247 242 238 239 244 251 257 259 261 268 269 269 263 264 265 265 271
267 270 270 273 278 277 276 277 279 282 285 288 292 293 296 292 292 290 290 290 290 275 247 261 247 256 259 261 262 264 264 263 261 258 261 265 264 262 253 254 260 256 262 275
264 268 270 271 271 271 274 276 279 282 285 288 290 293 290 288 288 284 275 273 261 257 267 273 262 261 262 259 265 267 264 261 261 261 259 259 256 246 245 249 247 254 269 288
263 265 266 266 267 270 272 273 277 280 282 287 289 290 288 282 284 275 265 254 258 268 266 271 269 267 258 261 275 270 264 257 257 256 255 250 242 233 241 236 246 259 275 297
259 260 262 265 265 267 269 271 275 276 281 285 288 286 282 278 279 264 256 252 254 266 263 269 274 272 270 271 281 276 271 265 261 259 249 239 232 237 237 236 248 259 278 296
256 256 260 261 263 264 265 269 271 275 279 284 285 281 277 277 274 258 253 250 246 257 260 266 272 271 275 283 286 285 279 275 265 253 233 236 231 232 233 239 245 257 277 292
252 251 256 260 261 263 266 268 270 271 276 282 282 278 275 274 271 259 251 246 252 246 259 265 268 269 268 278 280 282 273 264 256 246 235 227 230 230 233 237 246 259 271 283
249 251 253 258 260 262 261 267 268 271 274 277 278 278 273 271 270 262 253 245 245 246 252 264 263 268 266 273 277 276 264 256 246 236 233 229 231 233 237 243 252 262 269 280
249 250 250 251 253 253 257 261 266 269 273 276 275 276 273 269 266 263 254 247 243 249 249 253 259 263 261 272 274 275 269 259 248 240 235 232 235 238 242 247 254 262 269 278
245 246 248 246 248 252 257 261 266 271 273 273 274 273 273 270 264 262 258 251 245 247 248 247 253 259 256 261 269 273 271 267 253 246 239 235 238 243 247 251 256 263 271 277
248 245 246 246 248 254 258 262 267 271 272 272 273 272 271 268 266 262 258 254 250 247 248 247 247 256 260 259 259 267 270 268 263 258 249 240 241 244 248 251 255 261 268 273
255 252 254 251 253 256 261 263 266 269 269 270 271 271 269 268 266 262 260 255 252 250 248 251 250 253 256 257 259 258 264 266 266 266 258 250 244 246 249 253 256 262 268 272
256 257 258 258 259 257 259 263 264 266 268 270 269 270 269 267 265 263 261 259 254 252 250 250 251 253 252 254 255 260 258 261 265 265 264 261 257 251 251 255 259 261 266 272
254 256 257 258 259 259 260 264 264 265 264 266 267 267 268 268 267 265 263 261 258 253 251 249 251 252 251 251 253 257 259 259 262 265 266 265 265 266 262 260 261 264 268 270
253 253 255 258 258 260 260 261 261 261 262 266 268 266 267 268 267 265 264 264 260 256 252 251 251 251 251 251 254 254 257 262 261 262 264 267 267 267 269 270 269 268 269 270
250 252 253 253 255 257 258 258 259 259 261 264 265 265 265 267 266 266 267 268 263 260 256 252 252 253 253 253 252 255 258 262 259 260 262 263 265 267 267 268 268 269 271 272
Height
10582 10582 10579 10578 10577 10574 10573 10571 10568 10561 10561 10560 10556 10553 10544 10537 10529 10526 10521 10515 10511 10510 10510 10508 10503 10496 10497 10499 10499 10499 10502 10500 10502 10504 10506 10509 10511 10515 10517 10517 10518 10520 10521 10522
10566 10567 10563 10562 10561 10558 10555 10553 10548 10547 10542 10542 10538 10534 10527 10518 10513 10505 10500 10496 10491 10486 10486 10485 10481 10475 10472 10477 10479 10478 10480 10481 10483 10486 10488 10490 10493 10496 10497 10499 10501 10503 10503 10502
10552 10552 10546 10544 10544 10542 10538 10535 10531 10529 10524 10521 10520 10516 10508 10502 10494 10486 10476 10473 10468 10465 10462 10462 10461 10459 10455 10455 10459 10461 10461 10463 10465 10466 10469 10472 10475 10478 10481 10482 10483 10483 10483 10483
10534 10535 10529 10528 10527 10523 10522 10517 10514 10511 10508 10505 10497 10498 10490 10483 10478 10469 10458 10450 10447 10444 10443 10442 10441 10441 10439 10437 10438 10441 10443 10444 10446 10448 10452 10456 10459 10460 10463 10465 10465 10465 10465 10464
10518 10515 10511 10512 10509 10508 10504 10499 10496 10494 10491 10487 10476 10474 10474 10465 10460 10451 10442 10433 10428 10426 10424 10423 10423 10422 10421 10421 10421 10422 10425 10428 10430 10434 10436 10438 10442 10444 10447 10448 10448 10448 10446 10446
10497 10497 10497 10496 10493 10491 10488 10483 10480 10477 10474 10469 10463 10456 10456 10448 10441 10432 10424 10419 10414 10411 10407 10405 10404 10403 10401 10402 10403 10405 10408 10411 10415 10418 10421 10423 10426 10429 10431 10432 10431 10430 10430 10426
10479 10480 10479 10479 10476 10474 10471 10467 10462 10461 10456 10452 10446 10443 10436 10430 10424 10417 10410 10405 10400 10395 10392 10388 10386 10385 10384 10385 10387 10390 10393 10396 10400 10403 10407 10410 10413 10415 10416 10416 10416 10415 10412 10408
10463 10463 10462 10460 10458 10456 10455 10450 10444 10443 10442 10438 10430 10429 10424 10417 10410 10403 10396 10391 10386 10381 10378 10375 10372 10371 10371 10372 10374 10377 10380 10384 10387 10391 10394 10397 10400 10402 10402 10402 10402 10400 10397 10393
10444 10444 10442 10443 10442 10440 10437 10434 10428 10424 10424 10421 10418 10412 10407 10403 10398 10391 10383 10379 10374 10369 10366 10364 10362 10362 10361 10362 10364 10367 10370 10373 10376 10380 10383 10386 10388 10389 10391 10391 10390 10387 10385 10381
10425 10426 10425 10425 10424 10422 10421 10416 10411 10407 10407 10406 10404 10399 10390 10388 10384 10378 10372 10367 10364 10359 10356 10355 10354 10354 10354 10355 10357 10359 10361 10364 10367 10371 10374 10376 10378 10379 10380 10379 10379 10377 10375 10371
10405 10407 10408 10407 10407 10406 10404 10400 10396 10394 10392 10391 10393 10386 10381 10375 10372 10368 10362 10358 10355 10351 10349 10348 10348 10349 10349 10350 10352 10353 10355 10357 10360 10363 10365 10367 10368 10369 10369 10369 10369 10368 10366 10362
10385 10391 10391 10390 10391 10389 10388 10384 10382 10379 10380 10377 10379 10374 10371 10364 10363 10359 10355 10352 10349 10347 10347 10346 10345 10345 10345 10346 10347 10348 10350 10351 10353 10355 10356 10357 10358 10359 10360 10360 10360 10359 10357 10354
10368 10374 10373 10374 10374 10373 10372 10370 10367 10368 10366 10364 10365 10363 10357 10353 10353 10349 10348 10346 10345 10344 10343 10342 10341 10341 10341 10341 10342 10343 10344 10344 10345 10346 10346 10347 10348 10350 10351 10352 10351 10350 10348 10344
10350 10355 10356 10357 10359 10359 10357 10354 10355 10354 10353 10355 10349 10350 10351 10342 10342 10340 10339 10339 10339 10339 10339 10338 10337 10337 10336 10335 10335 10335 10335 10335 10336 10337 10337 10339 10341 10342 10344 10344 10343 10342 10340 10336
10335 10338 10338 10340 10344 10344 10343 10340 10340 10341 10341 10343 10340 10337 10338 10333 10333 10331 10331 10332 10332 10333 10332 10331 10331 10331 10330 10329 10328 10327 10327 10327 10328 10329 10331 10332 10333 10334 10335 10334 10335 10334 10332 10328
10318 10323 10321 10325 10330 10331 10329 10326 10325 10326 10328 10331 10330 10325 10327 10323 10323 10321 10322 10323 10324 10325 10326 10325 10324 10324 10323 10322 10322 10320 10320 10320 10321 10322 10324 10324 10324 10326 10326 10326 10325 10325 10322 10319
10303 10306 10305 10312 10314 10317 10319 10310 10313 10314 10315 10317 10316 10316 10315 10313 10312 10312 10312 10314 10316 10317 10318 10318 10318 10317 10317 10317 10316 10314 10313 10314 10314 10315 10316 10316 10317 10317 10317 10317 10316 10314 10312 10310
10285 10289 10293 10296 10297 10306 10303 10298 10297 10301 10304 10303 10302 10303 10303 10303 10301 10301 10302 10304 10306 10308 10309 10310 10310 10310 10310 10310 10309 10308 10307 10307 10308 10307 10308 10308 10309 10308 10308 10307 10306 10304 10303 10300
10268 10273 10277 10283 10283 10291 10290 10285 10285 10288 10290 10289 10290 10290 10290 10292 10290 10289 10291 10292 10295 10296 10298 10300 10300 10302 10302 10301 10301 10300 10299 10299 10300 10298 10299 10299 10298 10298 10298 10297 10296 10295 10293 10290
10252 10256 10261 10267 10269 10275 10276 10269 10272 10275 10275 10277 10277 10277 10278 10278 10278 10279 10279 10280 10282 10284 10287 10288 10290 10291 10292 10292 10291 10291 10291 10291 10290 10289 10289 10289 10289 10289 10289 10287 10286 10284 10281 10279
10235 10238 10245 10249 10255 10261 10254 10255 10258 10261 10263 10262 10263 10264 10265 10266 10265 10267 10266 10267 10268 10271 10274 10276 10278 10280 10281 10281 10281 10281 10280 10279 10278 10278 10278 10279 10279 10278 10277 10276 10274 10272 10270 10267
10215 10222 10227 10232 10238 10241 10240 10241 10244 10245 10247 10248 10249 10251 10251 10252 10252 10252 10253 10254 10255 10257 10260 10262 10265 10268 10269 10269 10268 10269 10270 10269 10268 10266 10266 10266 10267 10266 10265 10265 10262 10261 10258 10256
10199 10206 10210 10215 10219 10223 10224 10225 10229 10231 10233 10235 10235 10236 10236 10237 10237 10238 10239 10240 10241 10242 10244 10247 10250 10253 10254 10256 10255 10255 10257 10257 10256 10254 10254 10254 10254 10253 10252 10251 10250 10248 10246 10244
10182 10188 10193 10195 10201 10203 10207 10209 10213 10216 10218 10220 10220 10220 10221 10222 10223 10224 10224 10225 10225 10226 10228 10231 10233 10237 10239 10241 10242 10241 10242 10242 10243 10242 10241 10241 10240 10239 10239 10238 10237 10234 10232 10231
10165 10169 10174 10180 10180 10185 10188 10194 10197 10199 10202 10203 10204 10204 10204 10206 10207 10208 10209 10209 10210 10210 10211 10213 10216 10219 10222 10225 10226 10227 10227 10228 10228 10228 10228 10227 10226 10225 10223 10222 10220 10219 10216 10216
10144 10152 10158 10160 10164 10169 10173 10178 10179 10183 10185 10186 10188 10188 10189 10189 10190 10191 10192 10193 10194 10194 10195 10196 10198 10201 10204 10206 10209 10211 10212 10212 10212 10211 10211 10210 10210 10209 10207 10206 10204 10203 10199 10198